Simultaneous Nadir Overpasses (SNOs) Predictions

Prediction of SNOs between GOES-17 and METOP-B Satellite Orbit:

Table of predicted SNOs for the next 14.0 days since TLE Epoch: 1/24/2025
Index Date Time (GOES-17) GOES-17 Lat,Lon METOP-B Lat,Lon Distance(km) Time Diff (sec)
1 01/25/2025 04:18:09 0.00,-104.68 -0.27,-105.82 130.28 80
2 01/26/2025 03:54:54 -0.00,-104.68 0.86,-100.86 435.50 80
3 01/27/2025 16:13:53 -0.00,-104.70 0.17,-105.46 87.56 80
4 01/28/2025 15:55:57 0.00,-104.70 -0.91,-100.49 478.72 80
5 01/30/2025 04:15:04 -0.00,-104.68 -0.11,-105.14 52.19 80
6 02/01/2025 16:10:47 0.00,-104.69 0.04,-104.77 9.70 80
7 02/04/2025 04:09:19 -0.00,-104.68 0.06,-104.45 26.97 80
8 02/05/2025 16:28:17 -0.01,-104.68 0.95,-109.06 497.63 80
9 02/06/2025 16:10:22 -0.00,-104.68 -0.16,-104.09 68.72 80
